Terminal Aerodrome Forecast
Issued by NWS

Home | Current Version | Previous Version | Graphics & Text | Print | Product List | Glossary On
Versions: 1 2 3 4 5 6 7 8 9 10 11 12 13 14 15 16 17
000
FTUS43 KTOP 161100
TAFMHK
TAF
KMHK 161123Z 1612/1712 19016G25KT P6SM BKN200
     FM161400 21026G35KT P6SM BKN180
     FM162200 25015G21KT P6SM BKN080
     FM170100 31009KT P6SM BKN080=

USA.gov is the U.S. government's official web portal to all federal, state and local government web resources and services.